Latest Coastal Weather Observations for Esperance Harbour

IDW60701

Issued at 4:13 pm WST Sunday 4 December 2016 (issued every 10 minutes, with the page automatically refreshed every 10 minutes)

About coastal observations | Map of coastal stations | Coastal observations for WA | Marine services | Other Formats
Station Details ID: 109504 Name: ESPERANCE NTC AWS Lat: -33.87 Lon: 121.90 Height: 0.0 m
Data from the previous 72 hours. | See also: Recent months for locations in Western Australia
Date/Time
WST
Temp
°C
Wind Pressure Rain since
9am
mm
Weather Cloud Vis
km
Sea
Height
m
Swell
Dir  Spd
kts
Gust
kts
hPa Trend Height
m
Period
s
Dir
04/04:00pm 17.8 CALM 0 0 1013.3 - - - - - - - - -
04/03:30pm 17.9 - - - 1013.2 - - - - - - - - -
04/03:00pm 17.9 - - - 1013.1 - - - - - - - - -
04/02:30pm 18.3 - - - 1012.9 - - - - - - - - -
04/02:00pm 18.7 - - - 1013.0 - - - - - - - - -
04/01:30pm 18.0 - - - 1012.8 - - - - - - - - -
04/01:00pm 19.2 - - - 1012.8 - - - - - - - - -
04/12:30pm 18.8 - - - 1012.6 - - - - - - - - -
04/12:00pm 19.2 - - - 1013.0 - - - - - - - - -
04/11:30am 18.2 - - - 1013.0 - - - - - - - - -
04/11:00am 19.0 - - - 1013.0 - - - - - - - - -
04/10:30am 18.6 - - - 1013.0 - - - - - - - - -
04/10:00am 18.5 - - - 1012.9 - - - - - - - - -
04/09:30am 18.3 - - - 1012.6 - - - - - - - - -
04/09:00am 18.2 - - - 1012.4 - - - - - - - - -
04/08:30am 18.2 - - - 1012.3 - - - - - - - - -
04/08:00am 17.8 - - - 1012.3 - - - - - - - - -
04/07:30am 17.3 - - - 1012.1 - - - - - - - - -
04/07:00am 17.4 - - - 1011.7 - - - - - - - - -
04/06:30am 17.0 - - - 1011.3 - - - - - - - - -
04/06:00am 16.7 - - - 1010.9 - - - - - - - - -
04/05:30am 16.6 - - - 1010.6 - - - - - - - - -
04/05:00am 16.2 - - - 1010.0 - - - - - - - - -
04/04:30am 16.3 - - - 1009.4 - - - - - - - - -
04/04:00am 16.3 - - - 1009.0 - - - - - - - - -
04/03:30am 16.6 - - - 1008.5 - - - - - - - - -
04/03:00am 16.9 - - - 1007.9 - - - - - - - - -
04/02:30am 17.0 - - - 1007.6 - - - - - - - - -
04/02:00am 17.3 - - - 1007.4 - - - - - - - - -
04/01:30am 17.1 - - - 1007.1 - - - - - - - - -
04/01:00am 17.1 - - - 1007.0 - - - - - - - - -
04/12:30am 18.4 - - - 1006.8 - - - - - - - - -
04/12:00am 18.5 - - - 1006.7 - - - - - - - - -
 
Date/Time
WST
Temp
°C
Wind Pressure Rain since
9am
mm
Weather Cloud Vis
km
Sea
Height
m
Swell
Dir  Spd
kts
Gust
kts
hPa Trend Height
m
Period
s
Dir
03/11:30pm 18.4 - - - 1006.5 - - - - - - - - -
03/11:00pm 18.4 - - - 1006.4 - - - - - - - - -
03/10:30pm 18.5 - - - 1006.2 - - - - - - - - -
03/10:00pm 18.8 - - - 1006.1 - - - - - - - - -
03/09:30pm 18.7 - - - 1006.1 - - - - - - - - -
03/09:00pm 17.8 - - - 1005.9 - - - - - - - - -
03/08:30pm 18.6 - - - 1005.6 - - - - - - - - -
03/08:00pm 18.4 - - - 1005.1 - - - - - - - - -
03/07:30pm 18.4 - - - 1004.3 - - - - - - - - -
03/07:00pm 18.6 - - - 1004.1 - - - - - - - - -
03/06:30pm 18.8 - - - 1004.0 - - - - - - - - -
03/06:00pm 18.9 - - - 1003.5 - - - - - - - - -
03/05:30pm 19.1 - - - 1003.2 - - - - - - - - -
03/05:00pm 19.1 - - - 1002.9 - - - - - - - - -
03/04:30pm 19.1 - - - 1002.3 - - - - - - - - -
03/04:00pm 19.9 - - - 1002.3 - - - - - - - - -
03/03:30pm 20.2 - - - 1002.1 - - - - - - - - -
03/03:00pm 20.8 - - - 1002.0 - - - - - - - - -
03/02:30pm 20.6 - - - 1001.8 - - - - - - - - -
03/02:00pm 21.0 - - - 1001.6 - - - - - - - - -
03/01:30pm 20.9 - - - 1001.3 - - - - - - - - -
03/01:00pm 21.3 - - - 1001.1 - - - - - - - - -
03/12:30pm 20.6 - - - 1001.1 - - - - - - - - -
03/12:00pm 21.8 - - - 1000.9 - - - - - - - - -
03/11:30am 23.5 - - - 1000.6 - - - - - - - - -
03/11:00am 28.1 - - - 1000.8 - - - - - - - - -
03/10:30am 28.2 - - - 1001.2 - - - - - - - - -
03/10:00am 27.0 - - - 1001.8 - - - - - - - - -
03/09:30am 25.2 - - - 1001.9 - - - - - - - - -
03/09:00am 22.9 - - - 1002.5 - - - - - - - - -
03/08:30am 21.3 - - - 1003.2 - - - - - - - - -
03/08:00am 19.6 - - - 1003.9 - - - - - - - - -
03/07:30am 17.9 - - - 1004.4 - - - - - - - - -
03/07:00am 17.0 - - - 1004.9 - - - - - - - - -
03/06:30am 15.7 - - - 1005.2 - - - - - - - - -
03/06:00am 15.0 - - - 1005.6 - - - - - - - - -
03/05:30am 15.4 - - - 1005.8 - - - - - - - - -
03/05:00am 15.3 - - - 1006.1 - - - - - - - - -
03/04:30am 15.6 - - - 1006.3 - - - - - - - - -
03/04:00am 16.0 - - - 1006.6 - - - - - - - - -
03/03:30am 15.6 - - - 1006.7 - - - - - - - - -
03/03:00am 15.9 - - - 1006.7 - - - - - - - - -
03/02:30am 15.8 - - - 1006.9 - - - - - - - - -
03/02:00am 15.8 - - - 1007.3 - - - - - - - - -
03/01:30am 15.8 - - - 1007.7 - - - - - - - - -
03/01:00am 15.8 - - - 1008.2 - - - - - - - - -
03/12:30am 15.7 - - - 1008.4 - - - - - - - - -
03/12:00am 15.7 - - - 1008.9 - - - - - - - - -
 
Date/Time
WST
Temp
°C
Wind Pressure Rain since
9am
mm
Weather Cloud Vis
km
Sea
Height
m
Swell
Dir  Spd
kts
Gust
kts
hPa Trend Height
m
Period
s
Dir
02/11:30pm 15.9 - - - 1009.2 - - - - - - - - -
02/11:00pm 16.1 - - - 1009.6 - - - - - - - - -
02/10:30pm 16.6 - - - 1010.0 - - - - - - - - -
02/10:00pm 16.6 - - - 1010.3 - - - - - - - - -
02/09:30pm 16.6 - - - 1010.6 - - - - - - - - -
02/09:00pm 16.7 - - - 1010.8 - - - - - - - - -
02/08:30pm 17.0 - - - 1010.9 - - - - - - - - -
02/08:00pm 17.0 - - - 1010.8 - - - - - - - - -
02/07:30pm 17.1 - - - 1011.1 - - - - - - - - -
02/07:00pm 17.2 - - - 1011.2 - - - - - - - - -
02/06:30pm 17.7 - - - 1011.4 - - - - - - - - -
02/06:00pm 18.3 - - - 1011.4 - - - - - - - - -
02/05:30pm 18.4 - - - 1011.4 - - - - - - - - -
02/05:00pm 17.8 - - - 1011.2 - - - - - - - - -
02/04:30pm 18.3 - - - 1011.4 - - - - - - - - -
02/04:00pm 18.1 - - - 1011.7 - - - - - - - - -
02/03:30pm 18.6 - - - 1011.6 - - - - - - - - -
02/03:00pm 18.4 - - - 1012.0 - - - - - - - - -
02/02:30pm 18.3 - - - 1012.3 - - - - - - - - -
02/02:00pm 18.3 - - - 1012.5 - - - - - - - - -
02/01:30pm 17.4 - - - 1012.9 - - - - - - - - -
02/01:00pm 17.6 - - - 1013.3 - - - - - - - - -
02/12:30pm 17.8 - - - 1013.7 - - - - - - - - -
02/12:00pm 17.5 - - - 1014.2 - - - - - - - - -
02/11:30am 18.2 - - - 1014.6 - - - - - - - - -
02/11:00am 16.9 - - - 1015.0 - - - - - - - - -
02/10:30am 17.3 - - - 1015.4 - - - - - - - - -
02/10:00am 17.9 - - - 1015.7 - - - - - - - - -
02/09:30am 16.9 - - - 1015.9 - - - - - - - - -
02/09:00am 16.5 - - - 1016.2 - - - - - - - - -
02/08:30am 16.0 - - - 1016.3 - - - - - - - - -
02/08:00am 15.2 - - - 1016.6 - - - - - - - - -
02/07:30am 14.8 - - - 1016.9 - - - - - - - - -
02/07:00am 14.4 - - - 1016.8 - - - - - - - - -
02/06:30am 13.8 - - - 1016.6 - - - - - - - - -
02/06:00am 13.4 - - - 1016.3 - - - - - - - - -
02/05:30am 13.2 - - - 1016.2 - - - - - - - - -
02/05:00am 13.2 - - - 1015.9 - - - - - - - - -
02/04:30am 13.0 - - - 1015.8 - - - - - - - - -
02/04:00am 12.8 - - - 1015.6 - - - - - - - - -
02/03:30am 12.8 - - - 1015.4 - - - - - - - - -
02/03:00am 13.5 - - - 1015.2 - - - - - - - - -
02/02:30am 13.9 - - - 1015.1 - - - - - - - - -
02/02:00am 14.0 - - - 1015.2 - - - - - - - - -
02/01:30am 14.0 - - - 1015.3 - - - - - - - - -
02/01:00am 15.9 - - - 1015.5 - - - - - - - - -
02/12:30am 15.7 - - - 1015.6 - - - - - - - - -
02/12:00am 15.6 - - - 1015.8 - - - - - - - - -
 
Date/Time
WST
Temp
°C
Wind Pressure Rain since
9am
mm
Weather Cloud Vis
km
Sea
Height
m
Swell
Dir  Spd
kts
Gust
kts
hPa Trend Height
m
Period
s
Dir
01/11:30pm 15.8 - - - 1016.1 - - - - - - - - -
01/11:00pm 15.9 - - - 1016.3 - - - - - - - - -
01/10:30pm 15.9 - - - 1016.6 - - - - - - - - -
01/10:00pm 15.8 - - - 1016.8 - - - - - - - - -
01/09:30pm 15.8 - - - 1016.8 - - - - - - - - -
01/09:00pm 15.8 - - - 1016.7 - - - - - - - - -
01/08:30pm 15.9 - - - 1016.5 - - - - - - - - -
01/08:00pm 15.9 - - - 1016.5 - - - - - - - - -
01/07:30pm 16.2 - - - 1016.4 - - - - - - - - -
01/07:00pm 16.1 - - - 1016.4 - - - - - - - - -
01/06:30pm 16.3 - - - 1016.3 - - - - - - - - -
01/06:00pm 16.5 - - - 1015.8 - - - - - - - - -
01/05:30pm 17.1 - - - 1015.3 - - - - - - - - -
01/05:00pm 17.3 - - - 1015.0 - - - - - - - - -
01/04:30pm 17.7 - - - 1014.8 - - - - - - - - -

Other Formats:

Comma delimited format used in spreadsheet applications
http://www.bom.gov.au/fwo/IDW60701/IDW60701.95648.axf

JavaScript Object Notation format (JSON) in row-major order
http://www.bom.gov.au/fwo/IDW60701/IDW60701.95648.json